This is the latest recevied weather packets stored in our database for station/object DK6GC-10. If no packets are shown the sender has not sent any weather packets the latest 10 day(s).
| Time | Temp. | Humidity | Pressure | Rain* | Wind** | Luminosity | Snow |
|---|---|---|---|---|---|---|---|
| 1788333353 | 17.22° C | 77% | 1022.9 hPa | - | - | - | - |
| 1788332453 | 16.11° C | 85% | 1022.8 hPa | - | - | - | - |
| 1788331553 | 15° C | 93% | 1022.5 hPa | - | - | - | - |
| 1788330661 | 15.56° C | 91% | 1022.6 hPa | - | - | - | - |
| 1788329751 | 14.44° C | 98% | 1022.5 hPa | - | - | - | - |
| 1788324323 | 12.22° C | 98% | 1022.5 hPa | - | - | - | - |
| 1788323423 | 12.22° C | 99% | 1022.3 hPa | - | - | - | - |
| 1788322527 | 12.78° C | 98% | 1022.4 hPa | - | - | - | - |
| 1788321623 | 12.78° C | 97% | 1022.4 hPa | - | - | - | - |
| 1788320723 | 12.78° C | 97% | 1022.5 hPa | - | - | - | - |
| 1788319822 | 12.22° C | 96% | 1022.4 hPa | - | - | - | - |
| 1788318922 | 12.78° C | 96% | 1022.5 hPa | - | - | - | - |
| 1788318022 | 12.78° C | 96% | 1022.3 hPa | - | - | - | - |
| 1788317122 | 12.78° C | 97% | 1022.2 hPa | - | - | - | - |
| 1788316221 | 12.78° C | 95% | 1022.3 hPa | - | - | - | - |
| 1788315321 | 12.78° C | 95% | 1022.4 hPa | - | - | - | - |
| 1788314421 | 12.78° C | 96% | 1022.4 hPa | - | - | - | - |
| 1788313521 | 12.78° C | 95% | 1022.2 hPa | - | - | - | - |
| 1788312621 | 13.33° C | 95% | 1022.3 hPa | - | - | - | - |
| 1788311720 | 13.33° C | 94% | 1022.2 hPa | - | - | - | - |
| 1788310820 | 13.33° C | 94% | 1022.3 hPa | - | - | - | - |
| 1788309920 | 13.33° C | 93% | 1022.5 hPa | - | - | - | - |
| 1788309038 | 13.89° C | 91% | 1022.4 hPa | - | - | - | - |
| 1788308119 | 13.89° C | 91% | 1022.6 hPa | - | - | - | - |
| 1788307223 | 13.89° C | 92% | 1022.5 hPa | - | - | - | - |
* Rain since midnight (hover to see other rain measurements)
** Current wind speed in m/s (hover to see current wind gust speed)